Location: Clegg Observatory
(38.9178°N, 78.6069°W)
Time: 12:27:58
(UTC-05:00)

Cosmos 1151 Rocket - Visible Passes

Search period start: 24 January 2017 00:00
Search period end: 03 February 2017 00:00
Orbit: 592 x 617 km, 82.5° (Epoch: 24 January)

Date Brightness Start Highest point End Pass type
(mag) Time Alt. Az. Time Alt. Az. Time Alt. Az.
24 Jan 4.4 06:10:43 10° SSE 06:14:43 41° E 06:18:44 10° NNE visible
24 Jan 3.4 17:55:45 10° NNW 18:00:01 70° W 18:04:18 10° S visible
25 Jan 3.2 06:23:12 10° S 06:27:27 73° E 06:31:43 10° NNE visible
25 Jan 4.6 18:08:45 10° NNW 18:12:45 39° W 18:16:46 10° SSW visible
26 Jan 3.0 06:36:01 10° SSW 06:40:15 63° W 06:44:30 10° N visible
26 Jan 5.7 18:22:01 10° NW 18:25:26 23° W 18:28:50 10° SW visible
27 Jan 6.0 05:13:16 10° SE 05:15:54 16° E 05:18:31 10° NE visible
27 Jan 3.5 06:49:11 10° SW 06:53:06 36° WNW 06:57:03 10° N visible
27 Jan 6.2 18:35:51 10° NW 18:38:02 14° W 18:40:14 10° WSW visible
28 Jan 5.2 05:24:56 10° SSE 05:28:31 27° E 05:32:07 10° NNE visible
29 Jan 4.0 05:37:08 10° SSE 05:41:13 47° E 05:45:18 10° NNE visible
30 Jan 3.0 05:49:42 10° S 05:53:57 84° E 05:58:13 10° N visible
31 Jan 6.4 04:28:54 10° E 04:29:47 11° E 04:30:38 10° ENE visible
31 Jan 3.0 06:02:36 10° SSW 06:06:46 55° W 06:10:57 10° N visible
01 Feb 5.7 04:39:26 10° SE 04:42:21 18° E 04:45:16 10° NE visible
01 Feb 3.7 06:15:51 10° SW 06:19:38 31° WNW 06:23:28 10° NNW visible
01 Feb 6.3 18:02:47 10° WNW 18:04:30 12° W 18:06:13 10° WSW visible
02 Feb 4.8 04:51:16 10° SSE 04:55:00 31° E 04:58:44 10° NNE visible
02 Feb 4.3 06:29:32 10° WSW 06:32:35 19° WNW 06:35:39 10° NNW visible
